User: anonymous   Login
Location: Decatur(IL)
(39.8400°N, 88.9550°W)
Time: 09:57:15
(UTC-06:00)
Language:

Cosmos 2242 Rocket - Orbit

View from above orbital plane
View from above orbital plane
View from above satellite
View from above satellite

Ground track
Ground track

The orbit data is extracted from the following two-line orbital elements,

1 22627U 93024B   14327.16527632  .00000384  00000-0  50121-4 0  4922
2 22627 082.5241 250.0960 0024795 151.1051 339.3664 14.77732770163746
Epoch (UTC): 23 November 2014 03:57:59
Eccentricity: 0.0024795
inclination: 82.5241°
perigee height: 619 km
apogee height: 654 km
right ascension of ascending node: 250.0960°
argument of perigee: 151.1051°
revolutions per day: 14.77732770
mean anomaly at epoch: 339.3664°
orbit number at epoch: 16374

The dashed part of the orbit path shows where the satellite is in the earth's shadow,  

DLR